GW3624 Weather Reports


time (UTC)temp
F
wind
direction
speed
knots
gust
knots
rain 1hr
in
rain 24hr
in
rain mn
in
humidity
%
barometer
mb
20260505170023 69 179 7.0 11.3 0.00 0.00 0.00 61 1012.2
20260505165508 68 169 6.1 9.6 0.00 0.00 0.00 62 1012.3
20260505165009 68 161 5.2 12.2 0.00 0.00 0.00 61 1012.5
20260505164503 68 187 4.3 13.0 0.00 0.00 0.00 62 1012.5
20260505164003 68 167 4.3 13.0 0.00 0.00 0.00 61 1012.7
20260505163504 68 174 6.1 13.0 0.00 0.00 0.00 61 1012.7
20260505163012 68 191 7.0 12.2 0.00 0.00 0.00 61 1012.7
20260505162506 68 112 6.1 10.4 0.00 0.00 0.00 62 1012.8
20260505162006 67 139 5.2 14.8 0.00 0.00 0.00 62 1012.8
20260505161514 67 84 4.3 14.8 0.00 0.00 0.00 62 1012.9
20260505161006 67 119 5.2 10.4 0.00 0.00 0.00 62 1012.9
20260505160506 68 175 3.5 10.4 0.00 0.00 0.00 62 1012.9
20260505153007 67 92 2.6 9.6 0.00 0.00 0.00 65 1012.9
20260505152503 67 167 4.3 9.6 0.00 0.00 0.00 64 1012.8
20260505152005 67 177 3.5 9.6 0.00 0.00 0.00 66 1012.8
20260505151512 67 127 3.5 9.6 0.00 0.00 0.00 65 1012.9
20260505151009 66 150 2.6 7.8 0.00 0.00 0.00 65 1012.9
20260505150507 66 149 3.5 8.7 0.00 0.00 0.00 65 1012.7
20260505140508 64 158 3.5 7.0 0.00 0.00 0.00 66 1012.3
20260505125008 61 130 1.7 3.5 0.00 0.00 0.00 72 1012.2
20260505124518 60 146 0.0 1.7 0.00 0.00 0.00 73 1012.2
20260505124006 60 111 0.9 1.7 0.00 0.00 0.00 75 1012.4
20260505123508 59 238 0.0 1.7 0.00 0.00 0.00 76 1012.3
20260505123022 59 339 0.0 1.7 0.00 0.00 0.00 77 1012.3
20260505122511 58 168 0.0 1.7 0.00 0.00 0.00 78 1012.2
20260505122014 58 168 0.0 1.7 0.00 0.00 0.00 79 1012.3
20260505121532 57 168 0.0 1.7 0.00 0.00 0.00 79 1012.3
20260505121011 57 168 0.0 1.7 0.00 0.00 0.00 79 1012.2
20260505120510 57 168 0.0 1.7 0.00 0.00 0.00 80 1012.3
20260505120029 57 168 0.0 1.7 0.00 0.00 0.00 78 1012.3
20260505115510 57 168 0.0 1.7 0.00 0.00 0.00 77 1012.2
20260505115010 57 168 0.0 0.9 0.00 0.00 0.00 77 1012.2
20260505114515 56 168 0.0 1.7 0.00 0.00 0.00 78 1012.1
20260505114008 56 168 0.0 0.9 0.00 0.00 0.00 78 1012.0
20260505113506 56 168 0.0 1.7 0.00 0.00 0.00 78 1011.9
20260505113004 56 168 0.0 1.7 0.00 0.00 0.00 78 1011.9
20260505112503 56 168 0.0 1.7 0.00 0.00 0.00 77 1011.8
20260505112003 56 168 0.0 1.7 0.00 0.00 0.00 77 1011.8
20260505111504 56 168 0.0 1.7 0.00 0.00 0.00 76 1011.7
20260505111004 56 168 0.0 1.7 0.00 0.00 0.00 77 1011.8
20260505110504 56 168 0.0 1.7 0.00 0.00 0.00 77 1011.7
20260505102009 56 168 0.0 1.7 0.00 0.00 0.00 75 1011.5
20260505101518 57 124 0.0 1.7 0.00 0.00 0.00 74 1011.4
20260505101003 57 97 0.9 4.3 0.00 0.00 0.00 74 1011.3
20260505100503 57 70 0.9 4.3 0.00 0.00 0.00 74 1011.3
20260505100014 57 118 0.9 2.6 0.00 0.00 0.00 74 1011.3
20260505095503 57 158 0.0 3.5 0.00 0.00 0.00 74 1011.3
20260505095005 57 139 0.9 3.5 0.00 0.00 0.00 73 1011.4
20260505094512 58 121 0.9 4.3 0.00 0.00 0.00 73 1011.3
20260505094005 58 149 0.0 3.5 0.00 0.00 0.00 73 1011.3
20260505093506 58 148 0.9 2.6 0.00 0.00 0.00 72 1011.2
20260505093023 58 195 0.9 4.3 0.00 0.00 0.00 72 1011.2
20260505092505 58 175 0.0 4.3 0.00 0.00 0.00 72 1011.2
20260505092008 58 150 0.9 2.6 0.00 0.00 0.00 71 1011.2
20260505091523 58 134 0.9 4.3 0.00 0.00 0.00 71 1011.1
20260505091006 59 136 0.9 4.3 0.00 0.00 0.00 70 1011.1
20260505090510 59 165 0.9 3.5 0.00 0.00 0.00 69 1011.1
20260505090024 59 165 0.9 3.5 0.00 0.00 0.00 69 1011.2
20260505085504 60 143 0.9 5.2 0.00 0.00 0.00 69 1011.2
20260505085009 60 100 2.6 5.2 0.00 0.00 0.00 69 1011.1
20260505084506 60 147 1.7 4.3 0.00 0.00 0.00 69 1011.2
20260505084005 60 176 0.9 4.3 0.00 0.00 0.00 68 1011.2
20260505083010 60 149 1.7 4.3 0.00 0.00 0.00 67 1011.2
20260505082506 61 144 0.9 4.3 0.00 0.00 0.00 67 1011.3
20260505082008 61 143 1.7 4.3 0.00 0.00 0.00 67 1011.2
20260505081518 61 160 0.9 4.3 0.00 0.00 0.00 67 1011.0
20260505081008 61 143 0.9 6.1 0.00 0.00 0.00 67 1010.9
20260505080508 61 94 1.7 6.1 0.00 0.00 0.00 66 1010.9
20260505080025 61 146 1.7 6.1 0.00 0.00 0.00 66 1010.8
20260505075509 61 163 2.6 6.1 0.00 0.00 0.00 66 1010.9
20260505075009 61 184 1.7 5.2 0.00 0.00 0.00 66 1010.9
20260505074526 61 165 2.6 5.2 0.00 0.00 0.00 65 1010.8
20260505074004 61 174 1.7 6.1 0.00 0.00 0.00 65 1010.7
20260505073506 62 140 1.7 6.1 0.00 0.00 0.00 65 1010.7
20260505073006 62 160 2.6 6.1 0.00 0.00 0.00 65 1010.6
20260505072508 62 176 2.6 5.2 0.00 0.00 0.00 65 1010.4
20260505072006 62 186 1.7 5.2 0.00 0.00 0.00 65 1010.4
20260505071518 62 161 3.5 5.2 0.00 0.00 0.00 64 1010.5
20260505071008 62 169 1.7 4.3 0.00 0.00 0.00 64 1010.6
20260505070509 62 155 1.7 7.8 0.00 0.00 0.00 63 1010.6
20260505070020 62 169 2.6 7.8 0.00 0.00 0.00 63 1010.6
20260505065507 62 150 3.5 7.8 0.00 0.00 0.00 63 1010.6
20260505065015 62 179 1.7 7.0 0.00 0.00 0.00 64 1010.6
20260505064524 62 179 1.7 7.0 0.00 0.00 0.00 63 1010.6
20260505064009 63 109 3.5 7.0 0.00 0.00 0.00 63 1010.7
20260505063509 63 136 1.7 7.0 0.00 0.00 0.00 63 1010.7
20260505063041 63 129 2.6 7.0 0.00 0.00 0.00 63 1010.7
20260505062504 63 174 2.6 6.1 0.00 0.00 0.00 62 1010.7
20260505062005 63 184 2.6 4.3 0.00 0.00 0.00 62 1010.8
20260505061508 63 125 1.7 5.2 0.00 0.00 0.00 62 1010.8
20260505061007 64 139 1.7 6.1 0.00 0.00 0.00 61 1010.9
20260505060508 64 147 2.6 6.1 0.00 0.00 0.00 61 1010.9
20260505060017 64 155 2.6 7.0 0.00 0.00 0.00 61 1010.9
20260505055509 64 174 3.5 7.0 0.00 0.00 0.00 60 1011.0
20260505055010 64 170 2.6 10.4 0.00 0.00 0.00 60 1011.0
20260505054527 64 143 3.5 10.4 0.00 0.00 0.00 60 1010.9
20260505054012 65 175 3.5 7.0 0.00 0.00 0.00 60 1011.0
20260505053510 65 176 3.5 7.0 0.00 0.00 0.00 59 1011.1
20260505053026 65 162 1.7 7.0 0.00 0.00 0.00 60 1011.1
20260505052507 65 143 2.6 7.8 0.00 0.00 0.00 60 1011.0
20260505052011 65 153 1.7 7.8 0.00 0.00 0.00 60 1011.0
20260505051536 65 149 1.7 7.0 0.00 0.00 0.00 59 1011.0
20260505051006 65 145 1.7 7.8 0.00 0.00 0.00 59 1011.1
20260505050507 65 115 2.6 8.7 0.00 0.00 0.00 58 1011.0
20260505041542 67 162 3.5 7.8 0.00 0.00 0.00 55 1010.8
20260505041009 67 160 2.6 7.8 0.00 0.00 0.00 55 1010.6
20260505040509 67 139 1.7 6.1 0.00 0.00 0.00 55 1010.6
20260505040029 67 169 2.6 7.8 0.00 0.00 0.00 54 1010.6
20260505035507 68 150 3.5 7.8 0.00 0.00 0.00 53 1010.6
20260505035007 67 144 2.6 7.8 0.00 0.00 0.00 54 1010.6
20260505034515 68 161 1.7 7.0 0.00 0.00 0.00 54 1010.4
20260505034006 68 148 1.7 6.1 0.00 0.00 0.00 53 1010.4
20260505033508 68 169 2.6 8.7 0.00 0.00 0.00 53 1010.4
20260505033024 68 170 2.6 8.7 0.00 0.00 0.00 53 1010.4
20260505032512 68 160 3.5 8.7 0.00 0.00 0.00 53 1010.4
20260505032008 68 215 4.3 8.7 0.00 0.00 0.00 53 1010.3
20260505031529 68 162 3.5 7.8 0.00 0.00 0.00 53 1010.1
20260505031007 68 167 2.6 11.3 0.00 0.00 0.00 53 1010.1
20260505030510 68 172 3.5 11.3 0.00 0.00 0.00 53 1010.1
20260505030026 69 138 3.5 13.9 0.00 0.00 0.00 52 1010.0
20260505025514 69 162 3.5 13.9 0.00 0.00 0.00 52 1009.9
20260505025010 69 127 4.3 7.8 0.00 0.00 0.00 52 1009.9
20260505024528 69 155 4.3 8.7 0.00 0.00 0.00 51 1009.8
20260505024007 69 163 4.3 8.7 0.00 0.00 0.00 51 1009.8
20260505023508 69 127 3.5 8.7 0.00 0.00 0.00 51 1009.8
20260505023018 69 160 2.6 9.6 0.00 0.00 0.00 51 1009.6
20260505022506 69 105 4.3 11.3 0.00 0.00 0.00 50 1009.5
20260505022010 70 150 4.3 11.3 0.00 0.00 0.00 50 1009.5
20260505021525 70 118 4.3 11.3 0.00 0.00 0.00 50 1009.5
20260505021009 70 176 4.3 8.7 0.00 0.00 0.00 49 1009.4
20260505020510 70 115 4.3 12.2 0.00 0.00 0.00 49 1009.3
20260505020024 70 165 5.2 12.2 0.00 0.00 0.00 48 1009.1
20260505015511 71 79 4.3 11.3 0.00 0.00 0.00 48 1008.9
20260505015005 71 120 5.2 11.3 0.00 0.00 0.00 48 1009.1
20260505014516 71 150 4.3 11.3 0.00 0.00 0.00 48 1009.0
20260505014006 71 226 6.1 10.4 0.00 0.00 0.00 48 1009.0
20260505013507 71 160 2.6 10.4 0.00 0.00 0.00 48 1009.1
20260505013018 71 103 4.3 11.3 0.00 0.00 0.00 48 1009.0
20260505012508 71 105 6.1 11.3 0.00 0.00 0.00 48 1009.0
20260505012007 71 155 1.7 14.8 0.00 0.00 0.00 48 1008.9
20260505011520 72 169 5.2 14.8 0.00 0.00 0.00 48 1008.9
20260505011004 72 107 5.2 11.3 0.00 0.00 0.00 48 1009.0
20260505010503 72 131 5.2 12.2 0.00 0.00 0.00 48 1009.1
20260505010009 72 171 6.1 12.2 0.00 0.00 0.00 49 1009.2
20260505005503 72 152 5.2 9.6 0.00 0.00 0.00 49 1009.2
20260505005004 71 168 4.3 8.7 0.00 0.00 0.00 49 1009.3
20260505004511 71 170 2.6 6.1 0.00 0.00 0.00 50 1009.4
20260505004007 72 150 1.7 6.1 0.00 0.00 0.00 50 1009.3
20260505003507 72 148 3.5 5.2 0.00 0.00 0.00 49 1009.3
20260505003011 72 151 1.7 5.2 0.00 0.00 0.00 48 1009.4
20260505002506 72 158 2.6 7.0 0.00 0.00 0.00 48 1009.4
20260505002010 73 148 2.6 7.0 0.00 0.00 0.00 48 1009.4
20260505001520 73 168 2.6 7.0 0.00 0.00 0.00 47 1009.5
20260505001006 73 176 3.5 7.8 0.00 0.00 0.00 47 1009.5
20260505000506 74 148 2.6 7.8 0.00 0.00 0.00 46 1009.7
20260505000024 74 146 1.7 7.8 0.00 0.00 0.00 46 1009.7
20260504235504 75 154 4.3 7.8 0.00 0.00 0.00 45 1009.7
20260504235002 75 186 3.5 9.6 0.00 0.00 0.00 44 1009.8
20260504234507 75 184 4.3 9.6 0.00 0.00 0.00 44 1009.8
20260504234002 75 181 3.5 9.6 0.00 0.00 0.00 44 1009.8
20260504233503 76 162 4.3 10.4 0.00 0.00 0.00 45 1009.9
20260504233010 76 190 5.2 10.4 0.00 0.00 0.00 44 1009.8
20260504232507 76 186 3.5 9.6 0.00 0.00 0.00 44 1009.9
20260504232007 76 144 3.5 13.0 0.00 0.00 0.00 44 1010.0
20260504231519 76 128 4.3 13.0 0.00 0.00 0.00 44 1010.0
20260504231010 76 178 5.2 9.6 0.00 0.00 0.00 43 1010.1
20260504230508 77 192 3.5 11.3 0.00 0.00 0.00 44 1010.1
20260504230020 77 195 3.5 11.3 0.00 0.00 0.00 43 1010.2
20260504225507 78 182 6.1 10.4 0.00 0.00 0.00 42 1010.1
20260504225008 78 153 3.5 8.7 0.00 0.00 0.00 42 1010.1
20260504224527 77 149 4.3 10.4 0.00 0.00 0.00 42 1010.2
20260504224003 77 174 7.0 10.4 0.00 0.00 0.00 43 1010.3
20260504223504 76 176 4.3 12.2 0.00 0.00 0.00 43 1010.3
20260504223007 76 190 5.2 12.2 0.00 0.00 0.00 43 1010.3
20260504222503 77 192 6.1 14.8 0.00 0.00 0.00 43 1010.4
20260504222006 77 186 6.1 14.8 0.00 0.00 0.00 42 1010.4
20260504221511 77 137 5.2 11.3 0.00 0.00 0.00 43 1010.4
20260504221006 77 140 2.6 10.4 0.00 0.00 0.00 45 1010.3
20260504220509 77 152 2.6 10.4 0.00 0.00 0.00 44 1010.2
20260504220021 78 113 5.2 10.4 0.00 0.00 0.00 43 1010.2
20260504215512 77 191 2.6 14.8 0.00 0.00 0.00 45 1010.2
20260504215008 77 131 6.1 13.0 0.00 0.00 0.00 45 1010.3
20260504214536 77 163 5.2 13.0 0.00 0.00 0.00 45 1010.3
20260504214014 77 181 5.2 11.3 0.00 0.00 0.00 45 1010.2
20260504213510 77 131 6.1 13.0 0.00 0.00 0.00 46 1010.3
20260504213028 77 167 5.2 13.0 0.00 0.00 0.00 45 1010.3
20260504212503 77 115 6.1 10.4 0.00 0.00 0.00 45 1010.3
20260504212005 77 188 5.2 10.4 0.00 0.00 0.00 46 1010.3
20260504211512 77 129 4.3 10.4 0.00 0.00 0.00 45 1010.3
20260504211007 77 168 4.3 13.0 0.00 0.00 0.00 46 1010.4
20260504210512 77 96 6.1 16.5 0.00 0.00 0.00 45 1010.4
20260504210019 77 195 5.2 16.5 0.00 0.00 0.00 45 1010.4
20260504205507 77 179 7.0 13.9 0.00 0.00 0.00 44 1010.3
20260504205007 77 146 6.1 13.9 0.00 0.00 0.00 44 1010.3
20260504204520 77 163 7.0 12.2 0.00 0.00 0.00 44 1010.4
20260504204009 77 141 6.1 13.0 0.00 0.00 0.00 45 1010.3
20260504203509 77 135 4.3 13.0 0.00 0.00 0.00 45 1010.4
20260504203026 77 164 5.2 13.0 0.00 0.00 0.00 46 1010.4
20260504202511 77 188 7.8 14.8 0.00 0.00 0.00 45 1010.6
20260504202010 77 129 7.0 14.8 0.00 0.00 0.00 47 1010.7
20260504201509 76 192 5.2 13.9 0.00 0.00 0.00 47 1010.9
20260504201008 77 120 5.2 15.6 0.00 0.00 0.00 45 1011.0
20260504200507 78 195 5.2 19.1 0.00 0.00 0.00 45 1011.0
20260504200017 78 207 9.6 19.1 0.00 0.00 0.00 46 1011.2
20260504195505 77 140 5.2 15.6 0.00 0.00 0.00 47 1011.2
20260504195007 77 161 5.2 15.6 0.00 0.00 0.00 46 1011.4
20260504194522 78 174 7.0 20.0 0.00 0.00 0.00 45 1011.4
20260504194007 77 197 7.8 20.0 0.00 0.00 0.00 45 1011.5
20260504193514 77 193 7.0 14.8 0.00 0.00 0.00 46 1011.6
20260504193024 77 174 7.8 13.0 0.00 0.00 0.00 46 1011.6
20260504192512 77 195 5.2 11.3 0.00 0.00 0.00 46 1011.7
20260504192009 76 194 4.3 11.3 0.00 0.00 0.00 47 1011.7
20260504191524 77 137 4.3 12.2 0.00 0.00 0.00 47 1011.8
20260504191013 77 139 5.2 12.2 0.00 0.00 0.00 46 1011.9
20260504190513 77 179 6.1 11.3 0.00 0.00 0.00 47 1011.7
20260504190013 77 122 6.1 11.3 0.00 0.00 0.00 47 1012.0
20260504185506 76 193 7.8 13.0 0.00 0.00 0.00 46 1011.9
20260504185006 76 218 7.0 13.0 0.00 0.00 0.00 46 1012.0
20260504184526 76 176 5.2 12.2 0.00 0.00 0.00 46 1012.0
20260504184009 76 180 6.1 11.3 0.00 0.00 0.00 47 1012.0
20260504183507 76 160 5.2 10.4 0.00 0.00 0.00 48 1012.0
20260504183026 76 193 5.2 13.0 0.00 0.00 0.00 46 1012.0
20260504182509 75 106 5.2 13.0 0.00 0.00 0.00 48 1011.9
20260504182010 75 124 7.0 14.8 0.00 0.00 0.00 48 1012.0
20260504181523 75 179 7.0 14.8 0.00 0.00 0.00 46 1012.1
20260504181010 74 134 6.1 12.2 0.00 0.00 0.00 50 1012.2
20260504180511 74 190 7.0 13.9 0.00 0.00 0.00 50 1012.2
20260504180027 74 173 4.3 13.9 0.00 0.00 0.00 49 1012.2
20260504175511 74 179 7.8 13.0 0.00 0.00 0.00 50 1012.3
20260504175011 74 172 7.0 12.2 0.00 0.00 0.00 50 1012.4
20260504174514 74 181 4.3 12.2 0.00 0.00 0.00 52 1012.4
20260504174005 74 189 4.3 11.3 0.00 0.00 0.00 52 1012.4
20260504173512 73 179 7.0 11.3 0.00 0.00 0.00 52 1012.4
20260504173021 73 131 6.1 12.2 0.00 0.00 0.00 52 1012.5
20260504172512 72 183 6.1 13.0 0.00 0.00 0.00 52 1012.6
20260504172011 72 185 6.1 14.8 0.00 0.00 0.00 53 1012.6
20260504171524 71 161 6.1 14.8 0.00 0.00 0.00 55 1012.6
20260504171011 71 146 7.0 12.2 0.00 0.00 0.00 55 1012.6
20260504170515 71 140 3.5 13.9 0.00 0.00 0.00 52 1012.7